W3JBS-2 Weather Reports


Display with metric or nautical units.
time (UTC)temp
F
wind
direction
speed
MPH
gust
MPH
rain 1hr
in
rain 24hr
in
rain mn
in
humidity
%
barometer
mb
20260505052200 59 0 0.0 0.0 0.00 0.00 0.00 61 1009.9
20260505050701 59 0 0.0 0.0 0.00 0.00 0.00 60 1010.0
20260505040700 61 209 2.0 7.0 0.00 0.00 0.00 56 1009.7
20260505035200 61 0 0.0 7.0 0.00 0.00 0.00 55 1009.7
20260505033700 61 213 3.0 9.0 0.00 0.00 0.00 55 1009.7
20260505032201 60 214 4.0 7.0 0.00 0.00 0.00 55 1009.9
20260505030700 60 0 0.0 1.0 0.00 0.00 0.00 54 1010.0
20260505025200 60 0 0.0 0.0 0.00 0.00 0.00 53 1009.8
20260505023700 60 0 0.0 0.0 0.00 0.00 0.00 53 1010.0
20260505022201 61 0 0.0 2.0 0.00 0.00 0.00 52 1010.1
20260505020700 61 0 0.0 6.0 0.00 0.00 0.00 52 1010.1
20260505015200 61 0 0.0 0.0 0.00 0.00 0.00 52 1010.0
20260505013701 61 0 0.0 0.0 0.00 0.00 0.00 50 1009.9
20260505012201 62 0 0.0 4.0 0.00 0.00 0.00 50 1009.9
20260505010700 62 0 0.0 6.0 0.00 0.00 0.00 49 1009.7
20260505005200 62 0 0.0 4.0 0.00 0.00 0.00 49 1009.6
20260505003700 64 0 0.0 0.0 0.00 0.00 0.00 47 1009.5
20260505002201 65 0 0.0 0.0 0.00 0.00 0.00 45 1009.3
20260505000700 67 0 0.0 0.0 0.00 0.00 0.00 43 1009.2
20260504235200 68 0 0.0 5.0 0.00 0.00 0.00 42 1009.2
20260504233700 68 0 0.0 4.0 0.00 0.00 0.00 41 1009.1
20260504232200 69 0 0.0 4.0 0.00 0.00 0.00 40 1009.1
20260504230701 70 0 0.0 14.0 0.00 0.00 0.00 40 1009.0
20260504223700 71 0 0.0 8.0 0.00 0.00 0.00 38 1009.2
20260504222200 70 227 2.0 7.0 0.00 0.00 0.00 39 1009.3
20260504220700 71 224 2.0 17.0 0.00 0.00 0.00 38 1009.3
20260504215201 72 0 0.0 5.0 0.00 0.00 0.00 40 1009.4
20260504213700 71 0 0.0 14.0 0.00 0.00 0.00 38 1009.5
20260504212200 71 0 0.0 16.0 0.00 0.00 0.00 39 1009.5
20260504210700 72 202 5.0 14.0 0.00 0.00 0.00 39 1009.5
20260504205200 71 201 9.0 15.0 0.00 0.00 0.00 38 1009.5
20260504203700 71 222 6.0 12.0 0.00 0.00 0.00 38 1009.6
20260504202200 71 234 6.0 16.0 0.00 0.00 0.00 38 1009.7
20260504200700 71 187 2.0 19.0 0.00 0.00 0.00 38 1009.8
20260504195200 71 217 1.0 12.0 0.00 0.00 0.00 39 1010.0
20260504193700 71 205 6.0 15.0 0.00 0.00 0.00 40 1010.1
20260504192200 70 208 3.0 13.0 0.00 0.00 0.00 39 1010.4
20260504190700 70 204 2.0 15.0 0.00 0.00 0.00 39 1010.5
20260504185200 70 209 9.0 19.0 0.00 0.00 0.00 40 1010.8
20260504183700 70 223 2.0 12.0 0.00 0.00 0.00 42 1010.9
20260504182200 69 187 3.0 18.0 0.00 0.00 0.00 38 1011.1
20260504180700 69 217 4.0 11.0 0.00 0.00 0.00 40 1011.3
20260504175200 68 216 3.0 13.0 0.00 0.00 0.00 39 1011.7
20260504173700 69 212 10.0 18.0 0.00 0.00 0.00 40 1011.8
20260504172200 68 231 2.0 12.0 0.00 0.00 0.00 41 1011.9
20260504170701 68 0 0.0 12.0 0.00 0.00 0.00 45 1012.0
20260504150700 64 236 2.0 10.0 0.00 0.00 0.00 50 1013.4
20260504140659 61 210 1.0 7.0 0.00 0.00 0.00 58 1013.7
20260504130700 58 236 4.0 10.0 0.00 0.00 0.00 62 1014.1
20260504110659 47 0 0.0 2.0 0.00 0.00 0.00 78 1014.5
20260504080700 45 0 0.0 1.0 0.00 0.00 0.00 68 1014.5